Theta_e
325 325 325 325 325 326 326 325 325 325 325 324 327 328 329 330 329 327 319 325 327 329 326 326 326 325 324 322 323 322 308 305 308 309 311 311 312 315 318 316 319 322 321 325 333
324 324 324 325 324 325 326 326 325 325 325 325 326 328 328 329 325 319 328 332 332 328 325 322 319 321 318 317 320 314 307 307 313 315 313 313 311 313 313 314 316 319 325 329 332
322 323 324 324 324 324 325 325 324 324 325 325 325 327 327 327 316 313 329 333 333 330 325 323 322 319 314 317 316 314 307 311 313 316 317 315 311 312 311 310 315 315 320 327 326
321 321 322 323 323 324 324 324 324 324 325 324 325 326 326 324 297 318 330 332 332 329 325 321 319 314 311 309 314 310 313 312 314 317 317 315 317 310 312 314 316 316 321 327 325
318 319 320 321 322 323 323 323 324 324 324 324 325 325 320 311 308 325 328 330 328 325 320 318 315 313 308 310 312 311 311 312 315 315 317 317 315 315 314 315 317 316 317 324 325
316 317 318 319 320 322 322 323 323 323 323 323 324 324 312 301 317 321 326 325 325 323 318 319 315 316 311 309 308 311 311 311 313 314 315 313 314 315 317 321 318 317 317 320 324
315 315 316 318 319 320 321 322 322 322 323 323 322 317 308 303 318 319 324 324 325 323 316 319 320 315 313 308 312 311 306 309 310 312 311 315 309 311 316 319 316 314 316 318 321
313 314 314 316 317 319 320 320 321 321 321 322 321 312 302 312 318 320 320 321 325 324 321 321 322 316 313 313 309 306 306 299 306 308 310 311 301 309 315 315 316 317 318 317 319
312 312 313 314 315 317 318 320 319 321 321 321 312 307 299 314 307 315 320 315 320 321 321 320 319 313 312 305 301 302 295 297 300 308 307 307 302 307 312 313 314 316 318 318 318
311 311 312 313 314 315 317 319 319 320 318 315 311 301 303 301 306 310 319 318 315 315 312 311 309 304 305 302 292 294 295 298 297 304 306 304 303 308 310 312 312 314 316 319 319
309 311 312 313 313 315 315 313 305 304 307 299 300 300 303 306 309 307 315 315 314 310 301 306 298 295 299 302 302 300 298 297 300 304 303 302 303 305 308 309 309 311 315 316 319
306 309 310 312 312 313 313 303 306 307 297 303 303 304 306 306 299 305 315 307 304 298 304 299 294 301 303 302 301 299 298 297 300 303 301 301 301 305 307 308 309 310 311 315 318
306 307 310 311 312 310 306 306 312 309 296 298 301 302 303 303 298 301 309 307 302 299 299 296 298 303 301 299 297 298 296 297 296 300 302 300 298 301 306 308 310 311 312 313 316
305 307 308 309 303 305 302 308 311 308 285 289 294 298 302 301 296 305 310 305 301 296 298 298 302 299 299 297 299 293 301 299 298 295 289 300 289 298 301 303 306 309 310 311 313
306 307 307 308 301 298 303 308 309 301 276 289 293 305 302 296 298 299 310 304 297 297 298 295 297 298 296 297 300 296 301 299 298 296 293 293 290 296 301 299 303 306 309 311 312
305 306 307 305 303 303 307 308 302 283 274 284 293 292 293 296 297 300 302 307 304 297 298 297 302 300 300 301 302 303 299 299 298 296 285 292 291 293 297 299 302 306 308 310 311
304 305 305 305 297 305 305 300 282 276 287 284 286 291 291 291 293 295 294 294 291 287 288 294 295 301 302 297 301 299 294 285 283 283 283 294 290 294 300 303 305 306 308 310 312
304 304 304 305 304 304 297 288 277 284 284 290 290 290 287 291 292 293 290 289 295 292 289 286 284 295 301 298 295 295 293 286 280 283 286 293 287 294 304 306 307 308 309 309 310
303 301 300 303 305 302 290 279 280 286 289 288 288 285 285 289 291 291 290 289 294 296 288 287 287 296 299 301 299 294 290 296 288 287 285 289 294 300 304 304 305 306 308 309 311
299 296 295 304 305 297 285 281 285 290 292 292 284 288 284 285 287 289 289 293 292 297 298 292 285 295 297 300 299 297 299 288 287 281 281 286 289 292 299 302 304 305 307 309 311
296 288 297 304 300 288 279 283 285 289 295 291 288 286 288 285 288 288 289 293 296 296 298 295 291 290 295 291 292 292 290 291 290 287 283 282 288 299 300 303 303 305 305 306 307
291 281 299 300 284 284 282 285 290 286 293 293 294 291 289 289 287 287 287 291 297 297 291 296 291 286 289 296 298 296 293 292 287 284 287 286 289 302 303 302 302 301 301 302 302
286 288 298 296 278 281 285 286 288 287 288 289 290 293 293 289 285 288 290 295 297 296 294 295 287 283 284 289 293 292 294 294 294 292 285 284 288 300 302 302 304 303 303 304 302
287 281 287 289 288 284 283 283 283 290 289 290 292 294 291 289 291 288 289 294 297 297 298 297 290 286 283 286 291 287 291 293 291 286 287 287 290 295 298 299 301 302 303 305 306
289 284 286 280 281 285 286 285 283 284 287 289 289 291 290 286 287 287 291 291 295 296 296 295 286 288 289 290 289 288 289 290 289 290 286 289 290 294 297 298 299 301 301 301 302
285 285 288 285 286 284 285 284 283 285 286 285 287 291 291 287 289 287 290 290 290 294 292 294 286 288 283 288 288 286 288 289 291 291 291 291 290 297 298 299 298 299 299 299 300
294 294 291 286 284 283 283 285 285 286 288 291 292 291 290 291 294 295 295 295 294 291 289 287 285 284 281 286 286 281 286 288 289 291 290 286 292 296 295 296 297 298 300 300 302
Wind_Speed
23 23 22 21 19 17 18 17 15 13 11 10 8 6 7 5 5 9 12 1 2 5 7 8 6 4 5 3 4 2 7 12 14 11 8 6 6 6 3 7 5 4 3 5 14
22 23 23 23 21 19 18 19 17 15 13 11 9 6 6 4 11 17 9 5 3 4 7 7 6 5 6 3 3 8 9 14 14 9 7 8 8 5 5 9 9 7 5 6 13
17 21 23 23 23 21 19 19 18 16 15 13 11 8 5 6 13 21 17 13 10 9 7 6 6 6 9 5 7 7 14 11 8 11 9 8 7 8 6 10 10 8 12 11 13
19 17 18 22 23 23 21 20 18 16 16 14 12 10 6 10 11 7 7 21 15 12 11 9 9 11 11 12 11 10 13 14 9 4 6 10 11 8 11 11 4 3 5 13 15
21 18 17 17 22 23 22 20 20 18 17 15 13 10 7 18 19 7 2 8 15 15 16 15 14 13 16 12 13 12 15 9 13 10 10 11 12 15 12 10 9 6 6 12 13
20 19 19 18 17 21 23 21 21 21 18 18 16 13 15 24 14 10 3 9 16 20 18 17 11 14 11 18 12 8 11 17 14 12 10 10 16 16 10 14 11 11 12 12 15
21 19 18 17 18 18 22 23 22 23 20 19 17 15 18 26 2 14 10 7 16 18 19 17 15 12 10 10 16 11 15 16 17 15 13 8 19 23 15 14 13 12 12 13 14
23 20 18 18 17 18 19 23 23 22 21 19 18 16 20 21 10 7 17 11 10 13 18 14 13 12 9 9 6 15 18 19 19 17 15 10 24 17 19 20 21 19 15 13 15
24 22 19 19 18 18 18 20 23 23 21 19 10 12 18 12 25 17 13 19 11 10 9 2 8 11 11 13 14 20 17 22 20 17 15 17 19 16 22 17 18 19 21 16 14
25 23 22 21 18 18 18 17 23 22 18 13 8 13 14 24 20 25 11 15 13 11 8 7 5 9 13 16 21 15 22 20 21 15 17 20 24 19 18 10 18 20 19 19 19
22 25 23 23 21 21 15 5 10 15 21 21 13 10 9 17 19 23 20 19 18 14 12 13 9 19 31 26 19 20 16 22 19 19 14 17 21 22 22 22 21 21 18 21 22
22 27 25 23 22 22 17 16 26 4 18 28 15 28 9 21 18 21 23 20 16 18 19 8 19 32 19 20 21 21 23 23 16 13 12 18 25 22 22 23 21 23 23 22 20
26 30 24 23 21 14 19 27 20 3 5 24 21 27 31 17 19 28 29 28 23 25 25 21 23 21 20 21 22 23 24 23 19 8 11 16 24 23 25 25 23 24 23 23 23
26 25 23 22 16 14 20 16 11 10 4 7 27 13 28 15 17 21 28 29 13 28 26 20 25 18 25 27 22 24 28 20 17 7 10 13 18 21 16 24 25 24 23 23 24
28 26 26 25 7 16 19 12 14 5 11 15 19 8 20 20 15 23 26 26 25 21 24 23 23 22 22 29 21 21 19 20 21 19 18 20 12 24 15 25 26 23 19 21 22
26 25 25 16 11 7 14 14 7 14 11 8 15 16 26 25 18 22 24 23 20 20 22 25 17 22 28 16 19 16 15 10 16 15 13 28 22 22 19 28 22 21 21 20 20
25 23 20 11 15 14 8 11 12 21 14 8 13 25 27 16 22 21 27 30 20 16 20 25 21 15 13 21 17 16 12 6 8 8 12 26 15 22 25 21 22 22 21 18 13
25 22 17 12 13 15 12 15 20 14 15 8 14 30 28 32 19 22 23 24 25 26 16 18 22 24 19 24 23 18 17 7 11 13 16 12 11 20 22 24 27 25 22 13 13
23 11 11 13 12 14 10 17 21 12 15 16 19 25 12 25 12 18 23 28 28 27 21 24 25 23 14 20 18 16 16 16 9 4 3 1 13 20 20 16 13 18 20 17 17
11 10 13 16 14 9 11 19 4 6 25 25 14 19 12 21 15 18 23 26 29 28 25 16 17 18 23 17 18 16 8 9 5 6 12 12 16 12 5 11 15 18 15 13 11
10 9 11 16 10 7 14 12 14 5 25 28 24 14 11 21 24 27 27 18 31 33 23 13 16 14 17 15 20 12 7 4 1 4 7 8 13 11 9 7 8 10 11 12 12
8 9 12 16 11 6 7 3 10 7 12 16 23 25 23 32 22 21 26 19 29 23 28 22 5 6 15 9 16 23 21 16 3 6 3 2 12 6 5 7 5 6 8 9 9
5 3 12 15 13 8 9 3 3 21 6 7 19 19 24 20 13 20 23 23 23 23 26 16 7 7 4 3 6 19 20 22 21 17 16 4 6 3 9 11 10 13 13 11 7
7 10 4 12 12 8 13 14 5 5 16 5 15 19 23 18 8 17 19 19 14 22 15 16 8 13 13 12 9 12 17 18 17 8 15 12 24 22 21 21 23 22 19 16 14
7 5 6 11 17 12 16 16 21 6 3 11 12 22 26 19 12 14 16 15 13 17 13 14 11 14 19 14 4 0 17 18 21 23 16 20 25 23 19 17 18 18 17 17 19
9 4 9 16 26 20 12 18 23 14 10 5 17 25 23 21 17 28 18 16 13 18 17 5 4 13 4 10 8 5 9 8 18 20 21 23 26 25 19 17 20 17 18 18 20
5 4 8 16 21 20 11 16 17 17 5 15 23 20 26 23 11 19 14 13 12 18 16 11 7 5 9 9 9 11 21 21 21 18 17 20 25 25 20 17 17 21 19 20 16
Wind_Direction
236 231 226 226 230 223 217 212 212 213 212 226 244 249 265 284 273 241 245 206 4 0 296 296 261 286 271 254 281 254 263 261 248 241 236 155 177 142 1 262 225 179 305 40 124
244 236 230 225 224 223 219 212 210 206 206 210 223 237 249 261 253 248 221 267 222 324 263 273 275 286 243 253 239 243 236 257 295 284 251 188 183 171 207 215 229 212 134 136 144
238 236 231 228 224 222 216 214 211 203 201 202 206 213 239 251 265 257 224 212 215 234 268 272 264 276 244 233 211 231 248 249 290 304 306 233 217 169 212 252 246 235 195 174 173
231 228 230 229 227 224 219 213 210 206 199 197 195 193 201 218 230 42 5 197 191 219 232 227 230 229 233 228 226 255 246 267 263 266 277 267 270 221 212 237 74 28 290 169 191
238 226 221 227 227 227 223 214 208 205 197 195 192 172 192 221 226 105 330 200 196 207 215 217 223 224 232 235 236 241 256 255 262 260 246 273 267 257 229 234 215 206 214 190 207
239 239 228 222 224 226 226 220 209 205 199 195 188 167 213 233 224 220 18 174 199 204 213 216 226 227 250 244 230 257 255 255 251 250 244 255 263 253 244 246 228 204 210 212 211
238 231 227 226 222 226 222 221 214 209 200 194 190 192 216 225 250 221 189 197 201 202 211 215 218 220 220 240 244 260 253 253 240 236 250 266 257 255 257 264 230 212 215 213 215
240 228 224 221 225 226 227 216 215 208 203 196 186 203 226 221 229 227 213 203 201 209 220 208 232 238 251 244 235 233 241 251 241 232 236 241 259 252 248 238 244 243 224 214 219
236 228 219 218 223 224 229 222 214 206 202 190 184 201 222 196 217 213 226 205 183 189 190 185 207 218 197 220 230 227 241 234 252 241 232 216 266 255 254 265 257 252 246 223 218
237 226 218 213 217 225 225 226 209 208 198 191 205 189 235 212 204 204 204 210 185 162 145 169 177 203 216 212 222 221 233 244 256 229 212 240 257 259 263 257 263 253 254 245 221
244 228 218 212 212 214 210 197 203 212 202 190 178 216 225 198 192 192 191 196 180 189 185 185 188 207 216 214 230 238 230 243 240 242 242 255 260 259 253 254 252 257 263 255 239
235 240 215 214 212 210 206 213 209 244 216 195 194 205 221 182 182 196 182 184 191 202 194 177 213 221 224 227 232 243 254 252 262 256 246 254 260 263 255 257 255 254 253 250 252
232 235 211 207 209 208 207 220 214 55 231 189 192 198 197 199 201 191 189 194 192 200 198 200 217 228 217 227 224 228 237 241 246 271 258 262 268 265 261 262 255 251 254 255 253
228 229 211 207 207 209 215 225 212 149 229 194 189 215 200 191 215 195 195 193 189 208 205 218 222 225 209 220 220 233 229 245 256 268 248 241 276 270 265 255 243 238 240 246 244
225 213 209 197 173 200 214 194 131 107 234 165 178 204 174 193 164 193 185 200 205 202 198 205 209 206 203 218 212 239 239 233 238 242 260 260 265 270 256 261 254 256 247 248 244
220 209 205 204 199 191 192 164 153 204 216 173 154 183 165 193 185 163 185 208 216 209 205 224 206 216 222 220 220 225 230 256 246 244 246 248 238 261 247 250 264 261 252 253 243
220 210 199 191 205 186 208 180 205 213 141 163 177 166 173 172 187 168 183 193 194 199 213 214 216 215 220 216 207 219 217 209 221 234 236 237 238 243 268 247 251 260 257 252 247
212 205 207 204 203 187 182 196 226 165 176 146 161 172 183 167 191 180 183 187 204 201 200 204 217 198 200 205 201 207 192 213 222 217 240 225 228 236 242 248 248 260 270 267 258
206 202 205 206 195 182 217 228 210 171 152 153 156 169 176 178 152 169 180 190 195 199 208 196 221 199 213 209 200 200 214 238 267 157 296 243 269 276 269 255 254 253 258 258 256
202 197 206 194 186 186 211 240 208 232 161 168 163 175 165 174 157 168 185 196 199 212 211 195 218 191 193 205 228 226 161 189 197 227 225 210 246 252 262 260 250 249 267 280 266
189 198 184 175 169 212 211 223 208 254 172 173 168 171 168 169 183 188 184 178 195 198 211 223 213 175 158 201 193 203 204 175 80 251 247 272 260 287 281 337 317 346 0 338 330
183 187 167 160 207 185 197 213 210 190 238 189 168 168 172 175 187 190 200 205 191 197 198 207 242 189 203 177 222 221 224 215 203 190 227 271 260 351 2 29 24 356 335 331 315
196 160 170 165 201 190 185 177 303 189 244 189 183 186 181 172 176 194 204 197 188 187 192 181 202 179 166 253 225 215 216 223 228 257 262 249 252 116 340 310 314 314 316 317 319
171 178 161 178 199 207 178 193 189 247 207 228 204 186 163 173 188 182 192 189 194 187 166 168 189 217 216 213 158 210 227 220 224 218 240 226 263 263 280 288 294 306 311 317 323
179 205 146 160 179 189 200 176 193 167 213 221 203 181 166 162 150 170 167 159 188 184 185 196 220 210 235 253 28 359 209 214 216 234 236 254 261 266 269 275 284 293 297 295 289
167 189 154 173 165 197 218 197 200 179 179 200 189 170 162 176 184 171 169 167 167 182 191 204 254 224 242 261 261 231 249 238 225 235 247 257 267 267 275 282 280 291 289 280 288
179 132 196 171 179 181 204 195 208 180 202 223 190 165 179 186 150 155 144 146 161 169 177 159 138 146 226 207 236 260 236 230 234 233 234 246 257 280 285 301 303 278 288 294 295